Location: Unspecified
(38.9820°N, 94.4650°W)
Time: 13:41:28
(UTC-05:00)

Resurs 1-4 Rocket - Visible Passes

Search period start: 29 September 2016 00:00
Search period end: 09 October 2016 00:00
Orbit: 800 x 814 km, 98.4° (Epoch: 27 September)

Date Brightness Start Highest point End Pass type
(mag) Time Alt. Az. Time Alt. Az. Time Alt. Az.
29 Sep 3.7 04:22:58 10° N 04:25:18 26° N 04:25:18 26° N visible
30 Sep 4.0 03:58:23 10° NNE 04:00:21 23° NNE 04:00:21 23° NNE visible
30 Sep 4.1 05:40:30 10° NW 05:41:24 12° NW 05:41:24 12° NW visible
01 Oct 4.5 03:34:00 10° NNE 03:35:23 18° NNE 03:35:23 18° NNE visible
01 Oct 3.9 05:14:41 10° NNW 05:16:27 17° NNW 05:16:27 17° NNW visible
02 Oct 4.9 03:09:55 10° NE 03:10:25 12° NE 03:10:25 12° NE visible
02 Oct 3.8 04:49:31 10° N 04:51:30 21° NNW 04:51:30 21° NNW visible
03 Oct 3.9 04:24:40 10° N 04:26:32 22° N 04:26:32 22° N visible
04 Oct 4.2 04:00:03 10° NNE 04:01:35 20° NNE 04:01:35 20° NNE visible
04 Oct 4.2 05:42:21 10° NW 05:42:39 11° NW 05:42:39 11° NW visible
05 Oct 4.7 03:35:39 10° NNE 03:36:37 15° NNE 03:36:37 15° NNE visible
05 Oct 4.1 05:16:26 10° NNW 05:17:42 15° NNW 05:17:42 15° NNW visible
06 Oct 5.1 03:11:33 10° NE 03:11:40 11° NE 03:11:40 11° NE visible
06 Oct 4.0 04:51:15 10° N 04:52:44 18° NNW 04:52:44 18° NNW visible
07 Oct 4.2 04:26:22 10° N 04:27:46 18° N 04:27:46 18° N visible
08 Oct 4.4 04:01:43 10° NNE 04:02:49 16° NNE 04:02:49 16° NNE visible
